Date String (YYYY-MM-DD hh:mm:ss) UTC,Instrument flags,Ambient pressure (hPa),Sample flow (lpm),Bypass flow (lpm),Sample temperature (°C),Ambient temperature (°C),ASC tube jacket temperature (°C),LED temperature (°C),Box temperature (°C),Sample RH (%),Span deviation,Mass concentration (μg/m³),Mass concentration (μg/m³),Mass concentration (μg/m³)
DateTimeUTC,F1_M11,P_M11,Q1_M11,Q2_M11,T1_M11,T2_M11,T3_M11,T4_M11,T5_M11,U1_M11,ZSPAN_M11,X0_M11,X2_M11,X1_M11
2022-09-29 16:00:00,,0830.8,5.00,0.00,30.3,27.2,00.0,38.9,32.1,20.5,0000.0,0017.06,0004.75,0003.71
2022-09-29 16:01:00,,0830.8,4.99,0.00,30.2,27.5,00.0,38.9,32.0,20.7,0000.0,0018.55,0004.87,0003.74
2022-09-29 16:02:00,,0830.8,5.00,0.00,30.2,27.9,00.0,38.9,31.9,20.9,0000.0,0020.02,0004.94,0003.76
2022-09-29 16:03:00,,0830.8,5.00,0.00,30.2,28.2,00.0,38.9,32.0,21.5,0000.0,0020.59,0005.01,0003.79
2022-09-29 16:04:00,,0830.7,5.01,0.00,30.2,28.4,00.0,38.9,32.0,22.0,0000.0,0021.28,0005.08,0003.82
2022-09-29 16:05:00,,0830.8,4.99,0.00,30.2,28.6,00.0,38.9,32.0,21.8,0000.0,0021.61,0005.18,0003.83
2022-09-29 16:06:00,,0830.8,4.99,0.00,30.2,28.7,00.0,38.9,32.0,21.6,0000.0,0020.19,0005.31,0003.86
2022-09-29 16:07:00,,0830.8,5.01,0.00,30.2,28.9,00.0,38.9,32.1,21.6,0000.0,0019.28,0005.39,0003.87
2022-09-29 16:08:00,,0830.8,5.00,0.00,30.2,29.0,00.0,38.9,32.1,21.1,0000.0,0019.82,0005.44,0003.88
2022-09-29 16:09:00,,0830.8,5.00,0.00,30.3,29.1,00.0,38.9,32.1,20.0,0000.0,0019.02,0005.42,0003.87
2022-09-29 16:10:00,,0830.7,4.99,0.00,30.3,29.2,00.0,39.0,32.2,20.9,0000.0,0020.28,0005.43,0003.87
2022-09-29 16:11:00,,0830.8,5.01,0.00,30.3,29.3,00.0,39.0,32.2,20.7,0000.0,0020.43,0005.49,0003.87
2022-09-29 16:12:00,,0830.7,4.99,0.00,30.4,29.3,00.0,39.0,32.3,20.6,0000.0,0019.85,0005.56,0003.88
2022-09-29 16:13:00,,0830.7,5.02,0.00,30.4,28.4,00.0,39.0,32.2,20.7,0000.0,0018.81,0005.62,0003.90
2022-09-29 16:14:00,,0830.7,5.00,0.00,30.3,27.1,00.0,38.9,32.1,21.0,0000.0,0018.75,0005.62,0003.90
2022-09-29 16:15:00,,0830.6,4.99,0.00,30.3,27.1,00.0,38.9,32.1,20.6,0000.0,0019.60,0005.56,0003.89
2022-09-29 16:16:00,,0830.6,5.01,0.00,30.2,27.3,00.0,38.9,32.0,20.6,0000.0,0019.25,0005.50,0003.89
2022-09-29 16:17:00,,0830.6,4.99,0.00,30.2,27.6,00.0,38.8,31.9,20.8,0000.0,0019.28,0005.46,0003.89
2022-09-29 16:18:00,,0830.6,5.00,0.00,30.1,27.9,00.0,38.8,31.9,21.1,0000.0,0019.08,0005.41,0003.89
2022-09-29 16:19:00,,0830.6,5.01,0.00,30.1,28.2,00.0,38.8,31.9,21.0,0000.0,0018.89,0005.40,0003.89
2022-09-29 16:20:00,,0830.6,5.00,0.00,30.1,28.5,00.0,38.8,31.9,20.9,0000.0,0020.57,0005.44,0003.89
2022-09-29 16:21:00,,0830.6,4.99,0.00,30.1,28.6,00.0,38.8,32.0,20.9,0000.0,0019.60,0005.48,0003.90
2022-09-29 16:22:00,,0830.6,5.00,0.00,30.2,28.8,00.0,38.8,32.0,21.1,0000.0,0018.26,0005.43,0003.90
2022-09-29 16:23:00,,0830.7,5.00,0.00,30.2,28.9,00.0,38.9,32.0,21.1,0000.0,0017.86,0005.39,0003.89
2022-09-29 16:24:00,,0830.6,5.00,0.00,30.2,29.0,00.0,38.9,32.1,21.5,0000.0,0017.84,0005.38,0003.88
2022-09-29 16:25:00,,0830.6,5.00,0.00,30.2,29.1,00.0,38.9,32.1,21.2,0000.0,0017.82,0005.36,0003.87
2022-09-29 16:26:00,,0830.6,5.02,0.00,30.3,29.2,00.0,38.9,32.2,20.6,0000.0,0016.63,0005.32,0003.86
2022-09-29 16:27:00,,0830.7,4.99,0.00,30.3,29.3,00.0,38.9,32.2,20.4,0000.0,0017.32,0005.28,0003.84
2022-09-29 16:28:00,,0830.6,5.00,0.00,30.3,29.3,00.0,38.9,32.2,20.6,0000.0,0016.98,0005.24,0003.82
2022-09-29 16:29:00,,0830.6,5.00,0.00,30.3,28.2,00.0,38.9,32.2,19.7,0000.0,0017.11,0005.19,0003.80
2022-09-29 16:30:00,,0830.6,5.00,0.00,30.3,27.1,00.0,38.9,32.0,18.6,0000.0,0016.08,0005.07,0003.77
2022-09-29 16:31:00,,0830.6,5.01,0.00,30.2,27.0,00.0,38.9,32.0,18.9,0000.0,0014.44,0004.95,0003.75
2022-09-29 16:32:00,,0830.6,5.00,0.00,30.2,27.2,00.0,38.8,31.9,19.1,0000.0,0014.17,0004.84,0003.72
2022-09-29 16:33:00,,0830.6,5.00,0.00,30.1,27.5,00.0,38.8,31.9,19.7,0000.0,0014.01,0004.79,0003.68
2022-09-29 16:34:00,,0830.6,4.99,0.00,30.1,27.9,00.0,38.8,31.9,19.4,0000.0,0013.80,0004.66,0003.65
2022-09-29 16:35:00,,0830.6,4.99,0.00,30.1,28.2,00.0,38.8,31.9,19.4,0000.0,0013.40,0004.52,0003.61
2022-09-29 16:36:00,,0830.6,5.01,0.00,30.1,28.4,00.0,38.8,31.9,18.1,0000.0,0012.54,0004.46,0003.57
2022-09-29 16:37:00,,0830.6,5.00,0.00,30.1,28.6,00.0,38.8,32.0,18.0,0000.0,0011.90,0004.38,0003.53
2022-09-29 16:38:00,,0830.6,5.00,0.00,30.1,28.8,00.0,38.8,32.0,18.4,0000.0,0011.30,0004.29,0003.50
2022-09-29 16:39:00,,0830.6,5.00,0.00,30.1,28.9,00.0,38.8,32.0,18.2,0000.0,0012.20,0004.19,0003.48
2022-09-29 16:40:00,,0830.6,5.00,0.00,30.2,29.0,00.0,38.8,32.1,18.2,0000.0,0012.19,0004.17,0003.45
2022-09-29 16:41:00,,0830.6,4.99,0.00,30.2,29.1,00.0,38.9,32.1,17.7,0000.0,0012.12,0004.12,0003.42
2022-09-29 16:42:00,,0830.6,5.00,0.00,30.2,29.2,00.0,38.9,32.1,17.5,0000.0,0011.78,0004.06,0003.39
2022-09-29 16:43:00,,0830.6,4.99,0.00,30.3,29.2,00.0,38.9,32.2,17.7,0000.0,0011.61,0004.03,0003.37
2022-09-29 16:44:00,,0830.5,5.01,0.00,30.3,28.2,00.0,38.9,32.1,18.1,0000.0,0011.25,0003.97,0003.36
2022-09-29 16:45:00,,0830.6,5.00,0.00,30.2,27.1,00.0,38.9,32.0,18.6,0000.0,0010.78,0003.93,0003.35
2022-09-29 16:46:00,,0830.5,5.00,0.00,30.2,27.1,00.0,38.8,32.0,19.8,0000.0,0010.53,0003.91,0003.35
2022-09-29 16:47:00,,0830.5,5.00,0.00,30.1,27.3,00.0,38.8,31.9,20.6,0000.0,0010.94,0003.85,0003.36
2022-09-29 16:48:00,,0830.5,5.00,0.00,30.1,27.7,00.0,38.8,31.8,20.8,0000.0,0011.66,0003.96,0003.39
2022-09-29 16:49:00,,0830.5,4.99,0.00,30.1,28.0,00.0,38.8,31.9,21.0,0000.0,0011.30,0004.02,0003.41
2022-09-29 16:50:00,,0830.5,5.01,0.00,30.1,28.3,00.0,38.8,31.9,20.7,0000.0,0010.46,0004.06,0003.42
2022-09-29 16:51:00,,0830.5,5.00,0.00,30.1,28.5,00.0,38.8,31.9,19.5,0000.0,0009.83,0004.04,0003.42
2022-09-29 16:52:00,,0830.5,5.00,0.00,30.1,28.6,00.0,38.8,32.0,19.4,0000.0,0010.44,0004.10,0003.44
2022-09-29 16:53:00,,0830.5,5.01,0.00,30.1,28.8,00.0,38.8,32.0,19.4,0000.0,0011.07,0004.16,0003.45
2022-09-29 16:54:00,,0830.6,4.98,0.00,30.1,28.9,00.0,38.8,32.0,19.5,0000.0,0011.02,0004.17,0003.46
2022-09-29 16:55:00,,0830.6,5.01,0.00,30.2,29.1,00.0,38.8,32.1,20.1,0000.0,0011.02,0004.19,0003.48
2022-09-29 16:56:00,,0830.5,4.99,0.00,30.2,29.1,00.0,38.8,32.1,19.4,0000.0,0011.07,0004.24,0003.49
2022-09-29 16:57:00,,0830.5,5.00,0.00,30.2,28.5,00.0,38.8,32.1,19.5,0000.0,0010.95,0004.27,0003.50
2022-09-29 16:58:00,,0830.5,4.99,0.00,30.2,27.2,00.0,38.8,31.9,20.1,0000.0,0010.77,0004.31,0003.51
2022-09-29 16:59:00,,0830.5,4.99,0.00,30.1,26.9,00.0,38.8,31.9,18.4,0000.0,0010.43,0004.25,0003.49
